Location: Peebles
(55.6412°N, 3.1714°W)
Time: 04:42:28
(UTC+00:00)

SPOT 1/Viking Rocket - Visible Passes

Search period start: 25 January 2022 00:00
Search period end: 04 February 2022 00:00
Orbit: 776 x 794 km, 98.4° (Epoch: 24 January)

Date Brightness Start Highest point End Pass type
(mag) Time Alt. Az. Time Alt. Az. Time Alt. Az.
25 Jan 5.3 19:13:45 18° NNE 19:13:45 18° NNE 19:15:35 10° N visible
25 Jan 5.7 20:54:22 19° NNW 20:54:22 19° NNW 20:55:44 10° NNW visible
26 Jan 5.4 18:42:23 14° NNE 18:42:23 14° NNE 18:44:06 10° NNE visible
26 Jan 5.4 20:23:00 21° N 20:23:00 21° N 20:24:45 10° N visible
26 Jan 6.5 22:03:37 11° NW 22:03:37 11° NW 22:03:53 10° NNW visible
27 Jan 5.5 18:11:01 10° NE 18:11:01 10° NE 18:11:44 10° NNE visible
27 Jan 5.2 19:51:37 22° N 19:51:37 22° N 19:53:39 10° N visible
27 Jan 6.1 21:32:15 16° NNW 21:32:15 16° NNW 21:33:17 10° NNW visible
28 Jan 5.1 19:20:15 20° NNE 19:20:15 20° NNE 19:22:26 10° N visible
28 Jan 5.6 21:00:53 20° NNW 21:00:53 20° NNW 21:02:29 10° NNW visible
29 Jan 5.3 18:48:53 16° NNE 18:48:53 16° NNE 18:51:01 10° N visible
29 Jan 5.2 20:29:30 24° N 20:29:30 24° N 20:31:32 10° NNW visible
29 Jan 6.4 22:10:07 12° NW 22:10:07 12° NW 22:10:31 10° NW visible
30 Jan 5.5 18:17:30 11° NE 18:17:30 11° NE 18:19:03 10° NNE visible
30 Jan 5.0 19:58:07 25° N 19:58:07 25° N 20:00:28 10° N visible
30 Jan 6.0 21:38:44 17° NNW 21:38:44 17° NNW 21:39:59 10° NNW visible
31 Jan 5.0 19:26:44 22° NNE 19:26:44 22° NNE 19:29:16 10° N visible
31 Jan 5.5 21:07:21 23° NNW 21:07:21 23° NNW 21:09:12 10° NNW visible
01 Feb 5.1 18:55:22 17° NE 18:55:22 17° NE 18:57:54 10° N visible
01 Feb 5.1 20:35:59 27° N 20:35:59 27° N 20:38:18 10° NNW visible
01 Feb 6.4 22:16:36 12° NW 22:16:36 12° NW 22:17:09 10° NW visible
02 Feb 5.4 18:23:59 12° NE 18:24:04 12° NE 18:26:09 10° NNE visible
02 Feb 4.8 20:04:36 28° N 20:04:36 28° N 20:07:15 10° N visible
02 Feb 6.0 21:45:13 18° NW 21:45:13 18° NW 21:46:41 10° NNW visible
03 Feb 4.8 19:33:13 25° NNE 19:33:13 25° NNE 19:36:06 10° N visible
03 Feb 5.4 21:13:50 25° NNW 21:13:50 25° NNW 21:15:57 10° NNW visible
